STARLINK-35203, 65498

Orbit data source: Space-Track

STARLINK-35203, 65498 is a payload satellite owned by SpaceX/Seattle (US) in LEO that was launched on Fri, 05 Sep 2025 UTC via an FALCON 9 launch vehicle from the Air Force Eastern Test Range (AFETR). Payload-class satellites include a variety of spacecraft equipped with specific instruments for various scientific and technological missions. These include communications satellites like Starlink; space stations such as the ISS; scientific satellites like the Hubble; Earth observation satellites from companies like Planet Labs, Umbra, and HawkEye 360; GPS; miniature CubeSats for education and research; and military/defense satellites.

Loading next visibility...
Identifier
65498, 2025-198G
Orbit
LEO
Country
Flag of USUS
Related business
Manufacturer
SpaceX/Seattle
Mission
Operational Commercial Communications
Bus & Motor
STARLINK V2MO, Unknown motor
Mass
575 kg wet, ~530 kg dry
Launch date (UTC)
2025-09-05 (9 months ago)
Launch vehicle
FALCON 9
Launch site
Air Force Eastern Test Range (AFETR)
Object type
Payload
Rocket body
Debris
Shape & HBR
Box + 2 Pan, 17.7 m
Radar Cross Section
36.964 m², Large (>1 m²)

Expand to show TLE details & history
Last TLE update: 10 hours ago

TLE from 10 hours ago
0 STARLINK-35203
1 65498U 25198G   26171.41668980  .00055799  00000-0  16527-2 0  9994
2 65498  53.1590 153.9721 0001535  78.7874  15.3980 15.34354913  5593
Epoch: 2026-06-20T10:00Z
TLE epoch observation values (Epoch: 2026-06-20T10:00:01.998Z)
Latitude
53.10744°
Longitude
-167.69386°
Altitude
468.351 km
Speed
7.639 km/s
True Right ascension
16h 43m 47s
True Declination
52° 56' 07"
Sunlit
Object was in daylight at epoch
Visualization orbit readout
Latitude
Unknown
Longitude
Unknown
Altitude
Unknown
Speed
Unknown
Apparent Right ascension
Unknown
Apparent Declination
Unknown
Sunlit
N/A
Visualization observer readout
Local Sidereal Time
07:16:06
Azimuth
Unknown
Elevation
Unknown
Doppler factor
Unknown
Orbital elements
Apogee altitude
464.144 km
Perigee altitude
462.044 km
Semi-major axis
6,841.231 km
Eccentricity
0.00015
Inclination
53.159°
RAAN
153.9721°
Arg. of periapsis
78.7874°
True anomaly
15.40267°
Mean anomaly
15.398°
Eccentric anomaly
15.40034°
Mean motion
3.83567 °/min
Orbital period
93.86 mins
BSTAR
0.0016527
Loading maneuver chart data...
Computing Atmospheric mass density...
Loading historical data...
Loading historical data...
Loading historical data...
Loading historical data...
Loading historical data...
Loading historical data...
Loading historical data...

Documentation

Showing up to 5 results
|